Flag for Canada Weather past 2 weeks in Calgary, Alberta, Canada

Now
54 °F

Passing clouds.


Feels Like: 53 °F
Forecast: 49 / 69 °F
Wind: 5 mph from Southwest

Location: Calgary International

Current Time: Sep 19, 2014 at 2:58:44 AM

Latest Report: Sep 19, 2014 at 2:00 AM


Visibility: 15 mi

Pressure: 29.66 "Hg

Humidity: 77%

Dew point: 46 °F

Location of CalgaryLocation

Historic Weather in Calgary — Graph

°F

Calgary temperature yesterday

Maximum temperature yesterday: 70 °F (at 1:00 PM)
Minimum temperature yesterday: 57 °F (at 7:00 AM)
Average temperature yesterday: 61 °F

Past Weeks' High & Low Weather Summary

 TemperatureHumidityPressure
High77 °F (Sep 7, 4:00 PM)100% (Sep 8, 10:54 AM)30.71 "Hg (Sep 8, 10:54 AM)
Low28 °F (Sep 11, 7:00 AM)20% (Sep 5, 6:00 PM)29.57 "Hg (Sep 18, 2:00 PM)
Average49 °F67%30.14 "Hg
* Reported Sep 4 1:00 AM — Sep 19 1:00 AM, Calgary, Weather by CustomWeather, © 2014

Note: Actual official high and low records may vary slightly from our data, if they occured in-between our weather recording intervals... More about our weather records

Advertising

Calgary weather history for previous 24 hours

 ConditionsComfort  
Time TempWeatherWind HumidityBarometerVisibility
1:00 AM
Sep 19
55 °FPassing clouds.2 mph77%29.66 "Hg15 mi
12:00 AM54 °FPassing clouds.2 mph82%29.66 "Hg12 mi
11:00 PM
Sep 18
57 °FPassing clouds.No wind77%29.65 "Hg15 mi
10:00 PM57 °FPassing clouds.2 mph77%29.66 "Hg11 mi
9:00 PM57 °FPassing clouds.2 mph77%29.66 "Hg15 mi
8:00 PM59 °FBroken clouds.5 mph72%29.64 "Hg15 mi
7:00 PM61 °FSprinkles. Cloudy.6 mph68%29.62 "Hg15 mi
6:00 PM61 °FSprinkles. Mostly cloudy.10 mph68%29.61 "Hg15 mi
5:00 PM63 °FMostly cloudy.14 mph64%29.61 "Hg15 mi
4:00 PM64 °FMostly cloudy.13 mph56%29.59 "Hg15 mi
3:00 PM66 °FMostly cloudy.13 mph52%29.59 "Hg15 mi
2:00 PM70 °FBroken clouds.12 mph53%29.57 "Hg15 mi
1:00 PM70 °FMore clouds than sun.9 mph46%29.58 "Hg20 mi
12:00 PM66 °FBroken clouds.8 mph52%29.60 "Hg20 mi
11:00 AM63 °FBroken clouds.9 mph56%29.61 "Hg20 mi
10:00 AM63 °FPartly sunny.7 mph56%29.60 "Hg20 mi
9:00 AM57 °FPartly sunny.6 mph63%29.62 "Hg20 mi
8:00 AM57 °FPassing clouds.3 mph63%29.60 "Hg20 mi
7:00 AM57 °FMostly cloudy.3 mph63%29.59 "Hg20 mi
6:00 AM59 °FPassing clouds.6 mph59%29.59 "Hg15 mi
5:00 AM59 °FPassing clouds.5 mph59%29.59 "Hg15 mi
4:00 AM59 °FPartly cloudy.6 mph59%29.60 "Hg15 mi
3:00 AM59 °FPassing clouds.8 mph59%29.62 "Hg15 mi
2:00 AM64 °FPartly cloudy.5 mph43%29.61 "Hg15 mi
Weather by CustomWeather, © 2014

See weather overviewHow to use our weather pages